EW3608 Weather Reports


time (UTC)temp
F
wind
direction
speed
knots
gust
knots
rain 1hr
in
rain 24hr
in
rain mn
in
humidity
%
barometer
mb
20260902213015 88 168 1.7 6.1 0.00 0.00 0.00 22 1015.2
20260902212506 89 136 1.7 6.1 0.00 0.00 0.00 23 1015.3
20260902212003 88 103 1.7 7.0 0.00 0.00 0.00 22 1015.3
20260902211511 88 92 2.6 7.0 0.00 0.00 0.00 24 1015.4
20260902211010 88 65 0.9 5.2 0.00 0.00 0.00 24 1015.4
20260902210507 88 141 0.9 2.6 0.00 0.00 0.00 23 1015.5
20260902210015 88 101 0.9 2.6 0.00 0.00 0.00 23 1015.7
20260902205508 88 48 0.0 2.6 0.00 0.00 0.00 22 1015.7
20260902205008 88 23 0.9 2.6 0.00 0.00 0.00 22 1016.0
20260902204512 88 87 0.9 6.1 0.00 0.00 0.00 22 1016.1
20260902204005 89 131 0.9 6.1 0.00 0.00 0.00 21 1016.3
20260902203506 89 153 0.9 6.1 0.00 0.00 0.00 21 1016.4
20260902203014 90 142 2.6 6.1 0.00 0.00 0.00 21 1016.4
20260902202508 90 209 0.9 3.5 0.00 0.00 0.00 21 1016.5
20260902202010 90 84 0.9 3.5 0.00 0.00 0.00 21 1016.6
20260902201514 90 101 0.0 3.5 0.00 0.00 0.00 22 1016.6
20260902201011 90 139 0.9 7.8 0.00 0.00 0.00 22 1016.8
20260902200510 90 61 1.7 7.8 0.00 0.00 0.00 22 1016.7
20260902200007 89 157 0.9 6.1 0.00 0.00 0.00 23 1016.8
20260902195507 89 181 1.7 6.1 0.00 0.00 0.00 22 1016.9
20260902195012 89 125 1.7 7.8 0.00 0.00 0.00 22 1017.0
20260902194513 88 159 0.9 7.8 0.00 0.00 0.00 23 1017.0
20260902194011 89 145 2.6 7.8 0.00 0.00 0.00 23 1017.1
20260902193510 89 74 1.7 6.1 0.00 0.00 0.00 23 1017.1
20260902193015 89 108 1.7 8.7 0.00 0.00 0.00 24 1017.3
20260902192510 88 84 2.6 8.7 0.00 0.00 0.00 25 1017.3
20260902192006 87 159 1.7 8.7 0.00 0.00 0.00 24 1017.3
20260902191512 87 53 2.6 8.7 0.00 0.00 0.00 25 1017.3
20260902191009 88 214 1.7 5.2 0.00 0.00 0.00 25 1017.4
20260902190511 88 14 0.0 5.2 0.00 0.00 0.00 24 1017.3
20260902190021 87 91 1.7 4.3 0.00 0.00 0.00 24 1017.5
20260902185512 87 351 0.9 5.2 0.00 0.00 0.00 25 1017.5
20260902185015 87 115 1.7 5.2 0.00 0.00 0.00 24 1017.6
20260902184517 87 87 1.7 5.2 0.00 0.00 0.00 24 1017.7
20260902184003 87 49 1.7 4.3 0.00 0.00 0.00 24 1017.8
20260902183507 87 109 0.9 3.5 0.00 0.00 0.00 26 1017.9
20260902183014 87 23 0.9 2.6 0.00 0.00 0.00 24 1018.2
20260902182513 86 106 0.9 3.5 0.00 0.00 0.00 26 1018.4
20260902182009 86 257 0.9 3.5 0.00 0.00 0.00 25 1018.5
20260902181517 86 187 0.9 5.2 0.00 0.00 0.00 26 1018.6
20260902181011 86 96 0.9 5.2 0.00 0.00 0.00 25 1018.7
20260902180511 86 59 0.9 5.2 0.00 0.00 0.00 25 1018.7
20260902180017 85 147 0.0 5.2 0.00 0.00 0.00 26 1018.7
20260902175511 85 78 0.9 5.2 0.00 0.00 0.00 26 1018.8
20260902175013 85 167 1.7 4.3 0.00 0.00 0.00 26 1019.0
20260902174520 85 172 0.9 3.5 0.00 0.00 0.00 27 1019.0
20260902174012 85 156 1.7 5.2 0.00 0.00 0.00 27 1019.0
20260902173514 84 197 1.7 5.2 0.00 0.00 0.00 28 1019.0
20260902173018 84 146 1.7 5.2 0.00 0.00 0.00 29 1019.0
20260902172508 84 26 0.9 6.1 0.00 0.00 0.00 28 1019.0
20260902172009 84 174 1.7 6.1 0.00 0.00 0.00 29 1019.0
20260902171514 84 80 0.0 5.2 0.00 0.00 0.00 29 1019.1
20260902171010 83 155 1.7 6.1 0.00 0.00 0.00 30 1019.2
20260902170511 83 125 0.9 6.1 0.00 0.00 0.00 30 1019.3
20260902170020 83 90 0.9 4.3 0.00 0.00 0.00 30 1019.4
20260902165511 83 112 1.7 3.5 0.00 0.00 0.00 29 1019.4
20260902165013 82 136 0.9 3.5 0.00 0.00 0.00 31 1019.5
20260902164512 82 128 0.9 5.2 0.00 0.00 0.00 31 1019.4
20260902164009 82 129 0.9 5.2 0.00 0.00 0.00 33 1019.6
20260902163511 81 209 0.0 6.1 0.00 0.00 0.00 32 1019.6
20260902163019 81 139 2.6 6.1 0.00 0.00 0.00 33 1019.6
20260902162512 81 129 0.9 6.1 0.00 0.00 0.00 33 1019.6
20260902162014 81 146 1.7 6.1 0.00 0.00 0.00 34 1019.5
20260902161533 80 158 0.9 6.1 0.00 0.00 0.00 35 1019.6
20260902161014 80 42 0.9 5.2 0.00 0.00 0.00 35 1019.6
20260902160508 79 154 0.9 5.2 0.00 0.00 0.00 35 1019.6
20260902160016 79 115 1.7 6.1 0.00 0.00 0.00 37 1019.5
20260902155513 78 129 1.7 6.1 0.00 0.00 0.00 35 1019.4
20260902155011 78 104 1.7 6.1 0.00 0.00 0.00 37 1019.5
20260902154533 77 116 0.9 3.5 0.00 0.00 0.00 36 1019.6
20260902154017 77 44 0.9 5.2 0.00 0.00 0.00 38 1019.5
20260902153513 77 9 1.7 5.2 0.00 0.00 0.00 38 1019.3
20260902153008 76 101 0.9 3.5 0.00 0.00 0.00 38 1019.4
20260902152508 76 97 0.9 3.5 0.00 0.00 0.00 38 1019.4
20260902152011 75 38 1.7 3.5 0.00 0.00 0.00 41 1019.3
20260902151525 74 98 0.9 4.3 0.00 0.00 0.00 41 1019.3
20260902151004 74 39 1.7 4.3 0.00 0.00 0.00 40 1019.3
20260902150504 73 52 1.7 4.3 0.00 0.00 0.00 41 1019.2
20260902150007 72 109 0.0 3.5 0.00 0.00 0.00 45 1019.2
20260902145504 72 279 0.9 2.6 0.00 0.00 0.00 49 1019.2
20260902145007 71 85 0.9 2.6 0.00 0.00 0.00 49 1019.1
20260902144520 70 344 0.9 2.6 0.00 0.00 0.00 49 1019.1
20260902144011 70 332 0.9 2.6 0.00 0.00 0.00 51 1019.2
20260902143513 68 336 0.9 1.7 0.00 0.00 0.00 51 1019.0
20260902143003 68 5 0.0 1.7 0.00 0.00 0.00 52 1019.1
20260902142503 66 22 0.0 1.7 0.00 0.00 0.00 54 1019.1
20260902142003 66 94 0.0 1.7 0.00 0.00 0.00 55 1019.1
20260902141508 65 234 0.0 1.7 0.00 0.00 0.00 55 1019.0
20260902141007 64 53 0.9 2.6 0.00 0.00 0.00 57 1019.1
20260902140507 64 59 0.9 2.6 0.00 0.00 0.00 59 1019.0
20260902140019 63 98 0.9 2.6 0.00 0.00 0.00 59 1019.1
20260902135514 63 57 0.9 2.6 0.00 0.00 0.00 58 1019.2
20260902135003 62 38 1.7 2.6 0.00 0.00 0.00 61 1019.1
20260902134509 61 182 0.0 2.6 0.00 0.00 0.00 58 1019.1
20260902134004 61 182 0.0 2.6 0.00 0.00 0.00 59 1019.1
20260902133506 61 5 0.0 1.7 0.00 0.00 0.00 60 1019.1
20260902133011 60 348 0.0 1.7 0.00 0.00 0.00 60 1019.0
20260902132511 59 338 0.0 1.7 0.00 0.00 0.00 61 1019.0
20260902132012 59 283 0.0 2.6 0.00 0.00 0.00 60 1018.9
20260902131526 58 232 0.9 2.6 0.00 0.00 0.00 59 1018.8
20260902131004 58 188 0.0 1.7 0.00 0.00 0.00 63 1018.8
20260902130504 57 219 0.0 1.7 0.00 0.00 0.00 64 1018.7
20260902130006 57 254 0.0 1.7 0.00 0.00 0.00 65 1018.7
20260902125507 57 290 0.0 1.7 0.00 0.00 0.00 66 1018.7
20260902125007 57 283 0.0 1.7 0.00 0.00 0.00 65 1018.6
20260902124517 57 227 0.0 1.7 0.00 0.00 0.00 64 1018.6
20260902124010 57 232 0.0 1.7 0.00 0.00 0.00 65 1018.7
20260902123513 57 243 0.0 1.7 0.00 0.00 0.00 65 1018.8
20260902123004 58 220 0.0 1.7 0.00 0.00 0.00 63 1018.7
20260902122504 58 213 0.0 1.7 0.00 0.00 0.00 62 1018.7
20260902122004 59 187 0.0 1.7 0.00 0.00 0.00 61 1018.7
20260902121511 59 190 0.0 1.7 0.00 0.00 0.00 58 1018.7
20260902121009 60 360 0.0 1.7 0.00 0.00 0.00 57 1018.6
20260902120513 60 360 0.0 1.7 0.00 0.00 0.00 58 1018.7
20260902120029 60 360 0.0 1.7 0.00 0.00 0.00 56 1018.6
20260902115516 61 352 0.0 1.7 0.00 0.00 0.00 54 1018.4
20260902115003 61 352 0.0 1.7 0.00 0.00 0.00 56 1018.4
20260902114507 61 352 0.0 1.7 0.00 0.00 0.00 54 1018.4
20260902114010 60 352 0.0 1.7 0.00 0.00 0.00 54 1018.4
20260902113506 60 336 0.0 1.7 0.00 0.00 0.00 54 1018.4
20260902113018 60 336 0.0 1.7 0.00 0.00 0.00 56 1018.3
20260902112510 60 240 0.0 1.7 0.00 0.00 0.00 56 1018.4
20260902112015 59 218 0.0 1.7 0.00 0.00 0.00 59 1018.4
20260902111526 59 244 0.0 1.7 0.00 0.00 0.00 60 1018.4
20260902111002 59 250 0.0 1.7 0.00 0.00 0.00 60 1018.4
20260902110506 60 210 0.0 1.7 0.00 0.00 0.00 58 1018.4
20260902110011 60 194 0.9 1.7 0.00 0.00 0.00 58 1018.5
20260902105507 60 189 0.9 1.7 0.00 0.00 0.00 57 1018.5
20260902105015 61 161 0.0 1.7 0.00 0.00 0.00 56 1018.5
20260902104532 61 71 0.0 1.7 0.00 0.00 0.00 56 1018.5
20260902104015 62 100 0.0 1.7 0.00 0.00 0.00 54 1018.5
20260902103514 62 90 0.0 1.7 0.00 0.00 0.00 54 1018.5
20260902103004 62 175 0.0 2.6 0.00 0.00 0.00 53 1018.5
20260902102506 62 232 0.9 2.6 0.00 0.00 0.00 53 1018.5
20260902102006 61 223 0.9 2.6 0.00 0.00 0.00 53 1018.4
20260902101515 61 202 0.9 2.6 0.00 0.00 0.00 56 1018.4
20260902101011 60 202 0.9 2.6 0.00 0.00 0.00 58 1018.4
20260902100513 61 224 0.0 2.6 0.00 0.00 0.00 59 1018.3
20260902100027 61 167 0.9 2.6 0.00 0.00 0.00 57 1018.3
20260902095518 62 200 0.0 1.7 0.00 0.00 0.00 57 1018.4
20260902095003 62 200 0.0 1.7 0.00 0.00 0.00 56 1018.3
20260902094506 63 200 0.0 1.7 0.00 0.00 0.00 53 1018.4
20260902094007 63 200 0.0 1.7 0.00 0.00 0.00 52 1018.3
20260902093510 63 200 0.0 1.7 0.00 0.00 0.00 51 1018.3
20260902090014 63 219 0.0 3.5 0.00 0.00 0.00 50 1018.4
20260902085513 63 205 0.9 1.7 0.00 0.00 0.00 52 1018.4
20260902085011 63 62 0.0 1.7 0.00 0.00 0.00 55 1018.4
20260902084530 63 46 0.9 1.7 0.00 0.00 0.00 55 1018.4
20260902084017 63 84 0.0 1.7 0.00 0.00 0.00 54 1018.4
20260902083521 63 167 0.0 1.7 0.00 0.00 0.00 54 1018.3
20260902083011 64 252 0.0 1.7 0.00 0.00 0.00 53 1018.3
20260902082507 65 252 0.0 1.7 0.00 0.00 0.00 51 1018.3
20260902082010 65 253 0.0 1.7 0.00 0.00 0.00 50 1018.3
20260902081521 66 257 0.0 1.7 0.00 0.00 0.00 48 1018.3
20260902081010 67 257 0.0 1.7 0.00 0.00 0.00 46 1018.3
20260902080514 68 257 0.0 0.9 0.00 0.00 0.00 44 1018.3
20260902080008 69 257 0.0 1.7 0.00 0.00 0.00 43 1018.2
20260902075503 69 257 0.0 1.7 0.00 0.00 0.00 41 1018.3
20260902075004 70 317 0.0 1.7 0.00 0.00 0.00 40 1018.3
20260902074511 70 342 0.0 5.2 0.00 0.00 0.00 39 1018.4
20260902074008 70 276 0.9 5.2 0.00 0.00 0.00 39 1018.3
20260902073511 70 236 0.0 2.6 0.00 0.00 0.00 39 1018.3
20260902073026 70 269 0.9 4.3 0.00 0.00 0.00 39 1018.2
20260902072515 71 171 0.9 4.3 0.00 0.00 0.00 39 1018.2
20260902072007 71 250 0.9 3.5 0.00 0.00 0.00 39 1018.2
20260902071504 71 262 1.7 5.2 0.00 0.00 0.00 39 1018.3
20260902071004 70 255 0.9 5.2 0.00 0.00 0.00 39 1018.3
20260902070505 70 274 0.9 4.3 0.00 0.00 0.00 39 1018.3
20260902070018 70 254 0.9 3.5 0.00 0.00 0.00 39 1018.3
20260902065511 70 262 0.9 2.6 0.00 0.00 0.00 39 1018.3
20260902065014 70 263 0.9 2.6 0.00 0.00 0.00 39 1018.3
20260902064528 70 246 0.9 2.6 0.00 0.00 0.00 39 1018.4
20260902064002 70 304 0.0 3.5 0.00 0.00 0.00 40 1018.3
20260902063508 70 265 0.9 3.5 0.00 0.00 0.00 40 1018.3
20260902063008 70 292 0.0 3.5 0.00 0.00 0.00 40 1018.3
20260902062508 70 265 0.9 2.6 0.00 0.00 0.00 40 1018.3
20260902062010 70 277 0.0 2.6 0.00 0.00 0.00 40 1018.4
20260902061525 69 277 0.0 3.5 0.00 0.00 0.00 40 1018.4
20260902061013 69 155 0.9 3.5 0.00 0.00 0.00 40 1018.5
20260902060513 69 255 0.9 2.6 0.00 0.00 0.00 40 1018.6
20260902060006 69 202 0.0 3.5 0.00 0.00 0.00 40 1018.6
20260902055506 69 317 0.9 3.5 0.00 0.00 0.00 40 1018.6
20260902055008 69 10 0.0 1.7 0.00 0.00 0.00 40 1018.7
20260902054516 69 332 0.0 1.7 0.00 0.00 0.00 40 1018.6
20260902054011 69 336 0.9 1.7 0.00 0.00 0.00 40 1018.7
20260902053513 69 247 0.0 1.7 0.00 0.00 0.00 40 1018.6
20260902053029 69 245 0.0 1.7 0.00 0.00 0.00 40 1018.5
20260902052518 69 250 0.9 1.7 0.00 0.00 0.00 41 1018.6
20260902052003 69 327 0.9 2.6 0.00 0.00 0.00 40 1018.7
20260902051508 69 13 0.0 2.6 0.00 0.00 0.00 40 1018.6
20260902051010 69 280 1.7 2.6 0.00 0.00 0.00 41 1018.5
20260902050508 69 250 0.0 1.7 0.00 0.00 0.00 41 1018.5
20260902050030 68 360 0.0 1.7 0.00 0.00 0.00 41 1018.7
20260902045515 68 305 0.0 1.7 0.00 0.00 0.00 41 1018.8
20260902045015 68 204 0.0 1.7 0.00 0.00 0.00 42 1018.8
20260902044531 68 287 0.0 1.7 0.00 0.00 0.00 43 1018.9
20260902044004 68 268 0.0 1.7 0.00 0.00 0.00 43 1018.9
20260902043503 68 261 0.0 1.7 0.00 0.00 0.00 45 1018.9
20260902043009 68 352 0.0 1.7 0.00 0.00 0.00 49 1018.9
20260902042507 68 352 0.0 1.7 0.00 0.00 0.00 47 1019.0
20260902042011 68 340 0.0 1.7 0.00 0.00 0.00 47 1019.0
20260902041540 68 305 0.0 1.7 0.00 0.00 0.00 48 1018.9
20260902041014 68 229 0.0 1.7 0.00 0.00 0.00 49 1018.9
20260902040514 69 229 0.0 1.7 0.00 0.00 0.00 52 1019.0
20260902040005 69 162 0.0 1.7 0.00 0.00 0.00 52 1019.0
20260902035504 70 155 0.0 1.7 0.00 0.00 0.00 52 1019.0
20260902035008 70 155 0.0 1.7 0.00 0.00 0.00 51 1019.1
20260902034513 71 155 0.0 1.7 0.00 0.00 0.00 51 1019.1
20260902034016 71 155 0.0 1.7 0.00 0.00 0.00 50 1019.1
20260902033515 71 210 0.0 1.7 0.00 0.00 0.00 48 1019.1
20260902033027 72 222 0.0 1.7 0.00 0.00 0.00 47 1018.9
20260902032517 72 221 0.0 1.7 0.00 0.00 0.00 46 1018.7
20260902032005 73 205 0.0 1.7 0.00 0.00 0.00 45 1018.7
20260902031511 73 205 0.0 1.7 0.00 0.00 0.00 45 1018.6
20260902031008 73 205 0.0 1.7 0.00 0.00 0.00 44 1018.6
20260902030513 74 205 0.0 1.7 0.00 0.00 0.00 42 1018.5
20260902030022 74 229 0.0 1.7 0.00 0.00 0.00 41 1018.7
20260902025516 75 229 0.0 1.7 0.00 0.00 0.00 41 1018.5
20260902025019 76 46 0.0 1.7 0.00 0.00 0.00 39 1018.5
20260902024529 76 46 0.0 1.7 0.00 0.01 0.00 39 1018.4
20260902024003 76 46 0.9 1.7 0.00 0.01 0.00 37 1018.2
20260902023505 77 19 0.0 2.6 0.00 0.01 0.00 37 1018.0
20260902023017 77 337 0.9 4.3 0.00 0.05 0.00 37 1017.8
20260902022512 77 21 1.7 5.2 0.00 0.07 0.00 37 1017.8
20260902022016 77 22 0.9 8.7 0.00 0.07 0.00 37 1017.8
20260902021525 76 350 2.6 8.7 0.00 0.07 0.00 37 1017.8
20260902021014 76 39 0.9 2.6 0.00 0.07 0.00 38 1017.7
20260902020517 76 15 0.9 1.7 0.00 0.07 0.00 38 1017.6
20260902020008 77 65 0.0 1.7 0.00 0.07 0.00 36 1017.5
20260902015508 77 187 0.0 4.3 0.00 0.07 0.00 35 1017.5
20260902015007 77 134 0.0 4.3 0.00 0.07 0.00 35 1017.6
20260902014523 77 202 0.0 1.7 0.00 0.07 0.00 37 1017.6
20260902014011 77 232 0.0 1.7 0.00 0.07 0.00 38 1017.5
20260902013515 78 165 0.0 1.7 0.00 0.07 0.00 37 1017.4
20260902013029 78 165 0.0 1.7 0.00 0.07 0.00 37 1017.3
20260902012515 79 196 0.0 1.7 0.00 0.07 0.00 38 1017.4
20260902012006 79 168 0.0 1.7 0.00 0.07 0.00 37 1017.4
20260902011518 80 93 0.0 1.7 0.00 0.07 0.00 35 1017.2
20260902011008 80 93 0.0 1.7 0.00 0.07 0.00 35 1017.1
20260902010514 81 93 0.0 2.6 0.00 0.07 0.00 35 1017.0
20260902010035 81 86 0.0 2.6 0.00 0.07 0.00 33 1016.9
20260902005518 81 69 0.0 2.6 0.00 0.07 0.00 34 1016.8
20260902005017 81 40 0.0 2.6 0.00 0.07 0.00 33 1016.8
20260902004536 81 94 0.9 2.6 0.00 0.07 0.00 32 1016.9
20260902004005 81 74 0.0 1.7 0.00 0.07 0.00 34 1016.9
20260902003507 81 92 0.0 1.7 0.00 0.07 0.00 34 1017.0
20260902003104 81 50 0.0 2.6 0.00 0.07 0.00 34 1017.0
20260902002511 81 49 0.9 2.6 0.00 0.07 0.00 32 1017.0
20260902002015 82 43 0.9 3.5 0.00 0.07 0.00 32 1017.0
20260902001534 82 86 0.9 6.1 0.00 0.07 0.00 33 1017.0
20260902001016 82 73 0.9 6.1 0.00 0.07 0.00 32 1017.0
20260902000503 83 13 1.7 5.2 0.00 0.07 0.00 30 1017.0
20260902000016 83 75 2.6 4.3 0.00 0.07 0.00 28 1016.9
20260901235508 83 13 1.7 3.5 0.00 0.07 0.00 29 1016.9
20260901235011 84 59 1.7 3.5 0.00 0.07 0.00 28 1016.9
20260901234524 84 32 0.9 3.5 0.00 0.07 0.00 29 1016.9
20260901234016 84 352 0.0 4.3 0.00 0.07 0.00 29 1016.9
20260901233520 84 34 1.7 4.3 0.00 0.07 0.00 29 1016.9
20260901233036 84 56 1.7 5.2 0.00 0.07 0.00 28 1016.9
20260901232509 85 78 2.6 5.2 0.00 0.07 0.00 28 1016.8
20260901232007 86 9 0.9 5.2 0.00 0.07 0.00 27 1016.8
20260901231516 86 300 2.6 5.2 0.00 0.07 0.00 25 1016.8
20260901231012 87 46 1.7 7.8 0.00 0.07 0.00 25 1016.9
20260901230514 87 332 2.6 13.0 0.00 0.07 0.00 24 1016.8
20260901230029 88 44 6.1 13.0 0.00 0.07 0.00 24 1016.5
20260901225517 89 293 2.6 10.4 0.00 0.07 0.00 22 1016.7
20260901225017 89 310 1.7 10.4 0.00 0.07 0.00 22 1016.7
20260901224510 89 240 2.6 8.7 0.00 0.07 0.00 21 1016.6
20260901224008 90 282 1.7 7.0 0.00 0.07 0.00 21 1016.6
20260901223512 90 174 0.0 7.0 0.00 0.07 0.00 21 1016.6
20260901223023 90 338 2.6 10.4 0.00 0.07 0.00 20 1016.7
20260901222516 90 279 2.6 10.4 0.00 0.07 0.00 20 1016.8
20260901222013 89 212 2.6 9.6 0.00 0.07 0.00 21 1016.8
20260901221539 89 218 1.7 12.2 0.00 0.07 0.00 21 1017.0
20260901221018 89 24 1.7 12.2 0.00 0.07 0.00 21 1017.0
20260901220508 88 254 0.9 13.0 0.00 0.07 0.00 21 1017.2
20260901220023 88 45 1.7 13.0 0.00 0.07 0.00 22 1017.3
20260901215512 88 248 1.7 6.1 0.00 0.07 0.00 23 1017.4
20260901215016 87 286 0.9 5.2 0.00 0.07 0.00 23 1017.4
20260901214526 86 218 0.9 3.5 0.00 0.07 0.00 23 1017.5
20260901214015 86 299 0.9 6.1 0.00 0.07 0.00 23 1017.6
20260901213504 85 253 1.7 7.0 0.00 0.07 0.00 23 1017.6